Find STARLINK-37892

NORAD ID: 799500930 Int'l Des: 2026-130H Constellation: starlink operational

Current View

Loading 3D Globe...

About STARLINK-37892

STARLINK-37892 (NORAD 799500930) is a starlink constellation satellite launched Jun 7, 2026

About STARLINK-37892

Description loading...

Upcoming Passes

Passes for default location (London). Set your location on the main map for personalized predictions.

Altitude History

Loading altitude history...

Two-Line Element Set

1 99999C 2026130H 26163.05187500 .00468440 00000-0 714110-4 0 1630
2 99999 97.2798 182.7639 0010950 273.3419 132.7784 16.04086703 17
Epoch: Jun 12, 2026 • Age: 5 hours